Date,TemperatureHighF,TemperatureAvgF,TemperatureLowF,DewpointHighF,DewpointAvgF,DewpointLowF,HumidityHigh,HumidityAvg,HumidityLow,PressureMaxIn,PressureMinIn,WindSpeedMaxMPH,WindSpeedAvgMPH,GustSpeedMaxMPH,PrecipitationSumIn
2013-1-1,42.7,38.9,30.2,42.0,37.2,27.0,96,93,87,30.22,30.02,6,2,13,0.21
2013-1-2,34.0,29.4,25.0,27.0,23.2,21.0,88,78,59,30.30,30.19,4,2,8,0.00
2013-1-3,43.1,32.4,21.8,30.0,25.8,20.0,93,78,53,30.44,30.28,6,1,10,0.00
2013-1-4,46.7,34.5,24.1,32.0,27.4,22.0,94,77,50,30.52,30.40,6,1,9,0.00
2013-1-5,44.1,37.3,28.7,37.0,31.7,26.0,91,81,66,30.42,30.28,5,2,10,0.00
2013-1-6,50.0,39.7,32.6,39.0,34.4,28.0,96,82,55,30.40,30.25,9,2,13,0.00
2013-1-7,52.8,38.3,27.0,29.0,26.6,24.0,87,66,36,30.43,30.23,9,2,12,0.00
2013-1-8,56.5,46.3,31.5,45.0,35.7,27.0,85,68,52,30.29,30.16,9,2,13,0.00
2013-1-9,55.7,53.5,51.4,54.0,51.5,45.0,96,93,71,30.35,30.22,9,3,13,0.55
2013-1-10,66.9,61.2,54.9,63.0,59.7,54.0,97,94,87,30.27,29.88,25,7,31,0.55
2013-1-11,66.2,60.3,53.8,61.0,53.5,50.0,94,79,57,30.04,29.93,12,5,17,0.00
2013-1-12,71.3,67.7,63.1,67.0,64.8,61.0,97,90,81,29.96,29.73,17,6,21,0.12
2013-1-13,70.2,42.6,30.9,65.0,40.3,27.0,95,91,82,30.28,29.73,24,4,24,1.86
2013-1-14,30.7,27.9,26.0,27.0,24.0,22.0,89,85,77,30.40,30.27,8,3,17,0.00
2013-1-15,30.5,28.1,25.3,29.0,25.9,22.0,94,91,86,30.28,30.09,8,3,14,0.00
2013-1-16,32.3,30.7,28.8,30.0,28.7,27.0,94,92,90,30.21,30.07,5,1,7,0.06
2013-1-17,45.7,37.4,31.8,36.0,31.7,28.0,92,80,67,30.50,30.14,10,2,17,0.19
2013-1-18,53.0,38.5,25.4,31.0,27.5,23.0,94,68,32,30.59,30.36,5,1,9,0.00
2013-1-19,56.3,45.6,37.1,37.0,33.2,30.0,75,63,44,30.36,30.19,10,4,18,0.00
2013-1-20,60.4,46.9,34.3,37.0,33.4,29.0,90,62,37,30.28,30.16,7,2,15,0.00
2013-1-21,43.4,35.0,25.5,29.0,20.6,17.0,82,58,35,30.36,30.17,12,2,14,0.00
2013-1-22,39.4,31.8,23.4,21.0,18.7,16.0,83,60,44,30.46,30.33,5,1,10,0.00
2013-1-23,54.7,40.3,28.5,42.0,30.7,19.0,89,69,54,30.36,30.18,5,1,9,0.00
2013-1-24,46.3,39.9,35.3,43.0,26.2,19.0,91,59,48,30.44,30.21,10,3,16,0.00
2013-1-25,50.8,39.8,32.8,46.0,34.2,23.0,94,81,49,30.27,30.05,9,2,12,0.04
2013-1-26,55.2,42.3,30.9,36.0,32.4,29.0,95,72,40,30.35,30.25,5,1,10,0.00
2013-1-27,64.1,55.1,47.2,54.0,45.6,34.0,82,71,61,30.27,30.12,11,4,15,0.00
2013-1-28,71.0,63.0,57.3,62.0,57.1,53.0,92,81,70,30.17,30.05,13,7,18,0.02
2013-1-29,74.9,67.4,59.0,65.0,60.5,57.0,93,79,63,30.05,29.46,20,8,29,0.18
2013-1-30,65.6,47.7,34.0,64.0,41.4,26.0,96,79,59,30.04,29.53,16,7,27,0.99
2013-1-31,53.8,40.2,27.9,37.0,28.8,24.0,85,66,42,30.35,30.04,17,4,20,0.00